星链-5558 (STARLINK-5558 )

导读

STARLINK-5558是美国太空探索技术公司SpaceX星链卫星网络的一员,于2023年2月17日发射入轨,属于星链项目第二批组网卫星。星链系统旨在构建全球卫星互联网,该卫星承担低轨宽带通信服务任务,运行在近地轨道,为全球偏远地区、海洋与空中用户提供互联网接入能力,目前已在轨稳定运行超三年,参与全球卫星通信网络覆盖。

Basic Information
目录编号:
55631
目录名称:
STARLINK-5558
国际标识:
2023-021D
轨道中心:
EARTH
卫星名称:
星链-5558
卫星全名:
星链-5558 (STARLINK-5558 )
卫星状态:
在轨 (已飞行1214 天)
发射日期:
2023-02-17 UTC
国别 :
美国 (US)
星等 :
--
Orbit Information
数据来源 国际轨道数据 AOE轨道数据
星历时间 2026-06-15T04:19:04+0800
7小时前
查看轨道信息
2026-06-14T12:00:00+0800
1天前
查看轨道信息
半长轴 6950.168km 6950.187km
偏心率 0.0003045 0.00032
轨道倾角 70.000° 70.000°
近地点辐角 269.169° 268.914°
升交点赤经 319.396° 321.108°
平近点角 90.912° 24.771°
近地点 569.914km 569.825km
远地点 574.148km 574.275km
周期 96.106分钟 96.107分钟
每日圈数 14.983383 14.98332
Detailed Information
固有亮度:
5
最大亮度:
2.5
卫星平台:
Starlink v1.5
覆盖范围:
全球
运营商:
太空探索技术公司
运营商所在国:
美国
制造商(研发单位):
太空探索技术公司
制造商所在国:
美国
使用方式:
暂无
Satellite Introduction
星链(Starlink)计划是由太空探索技术公司(SpaceX)提出的一个巨型低轨卫星互联网星座项目,计划在2019年至2024年间在太空搭建由约1.2万颗卫星组成的“星链”网络,其中1584颗将部署在地球上空550千米处的近地轨道,并从2020年开始工作。该卫星仍在工作。
2D Orbit Map
3D Orbit Map
Orbit Altitude Analysis Chart
Orbit Inclination Analysis Chart
Orbit Comprehensive Analysis Chart
View Comprehensive Chart